Regional Weather Roundup
Issued by NWS

Home | Current Version | Previous Version | Graphics & Text | Print | Product List | Glossary On
Versions: 1 2 3 4 5 6 7 8 9 10 11 12 13 14 15 16 17 18 19 20 21 22 23 24 25 26 27 28 29 30 31 32 33 34 35 36 37 38 39 40 41 42 43 44 45 46 47 48 49 50
000
ASUS43 KFSD 062102
RWRSD

WEATHER ROUNDUP FOR SOUTH DAKOTA
NATIONAL WEATHER SERVICE SIOUX FALLS SD
300 PM CST SAT FEB 06 2016

NOTE: "FAIR" INDICATES FEW OR NO CLOUDS BELOW 12,000 FEET WITH NO
SIGNIFICANT WEATHER AND/OR OBSTRUCTIONS TO VISIBILITY.


SDZ001>005-009-010-012>017-062200-
NORTHWEST AND NORTH CENTRAL SOUTH DAKOTA

CITY           SKY/WX    TMP DP  RH WIND       PRES   REMARKS
BUFFALO          N/A     56  22  26 NW41G54   29.74S
FAITH            N/A     51  24  34 W15       29.79F
MOBRIDGE       CLOUDY    50  28  42 SW9       29.74S
$$

SDZ012>016-024>037-041>051-057-063-072>074-062200-
SOUTHWEST AND SOUTH CENTRAL SOUTH DAKOTA

CITY           SKY/WX    TMP DP  RH WIND       PRES   REMARKS
RAPID CTY ARPT CLOUDY    53  31  42 SE3       29.84F
PIERRE         MOSUNNY   49  28  44 SW18      29.79F
CUSTER         CLOUDY    42  20  41 SW14G32   29.89F
ELLSWORTH AFB  CLOUDY    56  29  35 S2        29.82F
PHILIP         CLOUDY    45  29  53 SW17      29.85F
PINE RIDGE     CLOUDY    44  26  49 SW13G22   29.93F
WINNER         FAIR      45  30  55 SW17      29.84F
$$

SDZ004>011-016>023-039-040-062200-
NORTHEAST SOUTH DAKOTA

CITY           SKY/WX    TMP DP  RH WIND       PRES   REMARKS
ABERDEEN       CLOUDY    42  31  64 S12       29.77F
WATERTOWN      CLOUDY    36  26  67 SW13      29.81F
BROOKINGS      CLOUDY    35  28  75 S13       29.86F WCI  26
$$

SDZ017-020-022-023-036>040-048>070-062200-
SOUTHEAST SOUTH DAKOTA

CITY           SKY/WX    TMP DP  RH WIND       PRES   REMARKS
SIOUX FALLS    CLOUDY    34  25  69 S14       29.91F WCI  25
HURON          CLOUDY    39  31  72 S12       29.83F
MITCHELL       CLOUDY    42  31  64 S12       29.87F
YANKTON        CLOUDY    37  25  60 S12       29.94F
$$

ABBREVIATIONS USED IN REMARKS
   TC - TEMPERATURE IN CELSIUS
  WCI - WIND CHILL INDEX
   HX - HEAT INDEX
  VSB - VISIBILITY




USA.gov is the U.S. government's official web portal to all federal, state and local government web resources and services.